New Haven, CT

10:55 AM EDT on June 22, 2017 (GMT -0400)
Tweed-New Haven

Weather History for KHVN - March, 2013

Change the Weather History Date:

Sunday, March 31, 2013

  Actual Average Record
Temperature  
Mean Temperature 42 °F -  
Max Temperature 54 °F 49 °F 75 °F (1998)
Min Temperature 30 °F 36 °F 30 °F (2005)
Degree Days  
Heating Degree Days 24    
Moisture  
Dew Point 35 °F    
Average Humidity 73    
Maximum Humidity 93    
Minimum Humidity 47    
Precipitation  
Precipitation 0.13 in - - ()
Sea Level Pressure  
Sea Level Pressure 29.95 in    
Wind  
Wind Speed 4 mph (ESE)    
Max Wind Speed 12 mph    
Max Gust Speed -    
Visibility 8 miles    
Events Rain    
Averages and records for this station are not official NWS values.
T = Trace of Precipitation, MM = Missing Value Source: NWS Daily Summary

Daily Weather History Graph

Daily Weather History Graph

Search for Another Location

Airport or City:

Trip Planner

Search our weather history database for the weather conditions in past years. The results will help you decide how hot, cold, wet, or windy it might be!

Date:

Astronomy

Mar. 31, 2013 Rise Set
Actual Time 6:36 AM EDT 7:15 PM EDT
Civil Twilight 6:08 AM EDT 7:43 PM EDT
Nautical Twilight 5:35 AM EDT 8:16 PM EDT
Astronomical Twilight 5:01 AM EDT 8:50 PM EDT
Moon No Moon Rise 9:18 AM EDT (3/31)
Length of Visible Light 13h 35m
Length of Day
12h 39m
Waning Gibbous, 78% of the Moon is Illuminated
Mar 31
Waning Gibbous
Apr 3
Last Quarter
Apr 10
New
Apr 18
First Quarter
Apr 25
Full

Hourly Weather History & Observations

Time (EDT) Temp. Windchill Dew Point Humidity Pressure Visibility Wind Dir Wind Speed Gust Speed Precip Events Conditions
12:53 AM 35.1 °F - 28.0 °F 76% 30.13 in 10.0 mi Calm Calm - N/A   Clear
1:53 AM 32.0 °F 28.7 °F 27.0 °F 82% 30.12 in 10.0 mi NNE 3.5 mph - N/A   Clear
2:53 AM 30.9 °F - 26.1 °F 82% 30.12 in 10.0 mi Calm Calm - N/A   Clear
3:53 AM 30.9 °F - 27.0 °F 85% 30.12 in 10.0 mi Calm Calm - N/A   Clear
4:53 AM 32.0 °F 28.7 °F 27.0 °F 82% 30.11 in 10.0 mi NNE 3.5 mph - N/A   Clear
5:53 AM 30.9 °F - 26.1 °F 82% 30.12 in 10.0 mi Calm Calm - N/A   Scattered Clouds
6:53 AM 30.0 °F - 26.1 °F 85% 30.12 in 10.0 mi Calm Calm - N/A   Scattered Clouds
7:53 AM 37.0 °F - 30.9 °F 79% 30.11 in 10.0 mi Calm Calm - N/A   Mostly Cloudy
8:53 AM 43.0 °F 40.3 °F 37.0 °F 80% 30.11 in 10.0 mi South 4.6 mph - N/A   Overcast
9:53 AM 46.9 °F - 37.0 °F 68% 30.10 in 10.0 mi SE 6.9 mph - N/A   Overcast
10:53 AM 48.0 °F - 36.0 °F 63% 30.10 in 10.0 mi South 4.6 mph - N/A   Overcast
11:53 AM 51.1 °F - 33.1 °F 50% 30.08 in 10.0 mi South 4.6 mph - N/A   Overcast
12:53 PM 53.1 °F - 34.0 °F 48% 30.06 in 10.0 mi ESE 6.9 mph - N/A   Overcast
1:53 PM 53.1 °F - 33.1 °F 47% 30.03 in 10.0 mi SSE 6.9 mph - N/A   Overcast
2:53 PM 52.0 °F - 34.0 °F 50% 30.00 in 10.0 mi South 10.4 mph - N/A   Overcast
3:53 PM 50.0 °F - 34.0 °F 54% 29.99 in 10.0 mi SSE 6.9 mph - N/A   Overcast
4:53 PM 51.1 °F - 35.1 °F 54% 29.95 in 10.0 mi ESE 5.8 mph - N/A   Overcast
5:53 PM 50.0 °F - 36.0 °F 59% 29.94 in 10.0 mi SE 6.9 mph - N/A   Overcast
6:53 PM 48.0 °F - 37.0 °F 66% 29.89 in 10.0 mi ESE 8.1 mph - N/A   Overcast
7:53 PM 48.0 °F - 37.9 °F 68% 29.84 in 10.0 mi East 8.1 mph - N/A   Overcast
8:53 PM 48.0 °F - 39.9 °F 74% 29.81 in 10.0 mi SE 11.5 mph - 0.00 in   Overcast
9:53 PM 46.0 °F 40.6 °F 39.9 °F 79% 29.76 in 4.0 mi East 11.5 mph - 0.05 in Rain Heavy Rain
10:07 PM 44.6 °F 39.7 °F 39.2 °F 81% 29.75 in 3.0 mi East 9.2 mph - 0.02 in Rain Rain
10:33 PM 44.6 °F 41.4 °F 41.0 °F 87% 29.72 in 2.5 mi East 5.8 mph - 0.04 in Rain Light Rain
10:39 PM 44.6 °F 40.2 °F 41.0 °F 87% 29.71 in 2.5 mi East 8.1 mph - 0.04 in Rain Light Rain
10:53 PM 45.0 °F 40.1 °F 41.0 °F 86% 29.70 in 3.0 mi East 9.2 mph - 0.05 in Rain Light Rain
11:21 PM 44.6 °F 43.1 °F 42.8 °F 93% 29.69 in 2.5 mi North 3.5 mph - 0.02 in Rain Light Rain
11:28 PM 46.4 °F 45.2 °F 42.8 °F 87% 29.68 in 3.0 mi Variable 3.5 mph - 0.02 in Rain Light Rain
11:53 PM 46.0 °F 42.5 °F 43.0 °F 89% 29.66 in 4.0 mi East 6.9 mph - 0.03 in Rain Light Rain